User: anonymous   Login
Location: Unspecified
(0.0000°N, 0.0000°E)
Time: 17:18:39
(UTC+00:00)
Language:

Cosmos 2499 - Orbit

View from above orbital plane
View from above orbital plane
View from above satellite
View from above satellite

Ground track
Ground track

The orbit data is extracted from the following two-line orbital elements,

1 39765U 14028E   21336.88976579 -.00000014  00000-0 -85365-4 0  9997
2 39765  82.4406 290.9901 0229661 292.4701  65.2229 12.83002523352515
Epoch (UTC): 02 December 2021 21:21:15
Eccentricity: 0.0229661
inclination: 82.4406°
perigee height: 1152 km
apogee height: 1506 km
right ascension of ascending node: 290.9901°
argument of perigee: 292.4701°
revolutions per day: 12.83002523
mean anomaly at epoch: 65.2229°
orbit number at epoch: 35251

The dashed part of the orbit path shows where the satellite is in the earth's shadow,  

DLR